Weather History for KTVL - September, 2013

Change the Weather History Date:

Sunday, September 22, 2013

  Actual Average Record
Temperature  
Mean Temperature 47 °F 52 °F  
Max Temperature 61 °F 72 °F 83 °F (2011)
Min Temperature 33 °F 33 °F 24 °F (1980)
Degree Days  
Heating Degree Days 18 13  
Month to date heating degree days 130 219  
Since 1 July heating degree days 306 515  
Cooling Degree Days 0 0  
Month to date cooling degree days 6 0  
Year to date cooling degree days 104 30  
Moisture  
Dew Point 33 °F    
Average Humidity 61    
Maximum Humidity 89    
Minimum Humidity 33    
Precipitation  
Precipitation 0.00 in - 0.23 in (1931)
Month to date precipitation 0.71  
Year to date precipitation 7.15  
Sea Level Pressure  
Sea Level Pressure 29.95 in    
Wind  
Wind Speed 3 mph (South)    
Max Wind Speed 17 mph    
Max Gust Speed 22 mph    
Visibility 10 miles    
Events      
T = Trace of Precipitation, MM = Missing Value Source: NWS Daily Summary

Daily Weather History Graph

Daily Weather History Graph

Search for Another Location

Airport or City:

Trip Planner

Search our weather history database for the weather conditions in past years. The results will help you decide how hot, cold, wet, or windy it might be!

Date:

Astronomy

Sep. 22, 2013 Rise Set
Actual Time 6:47 AM PDT 6:56 PM PDT
Civil Twilight 6:21 AM PDT 7:23 PM PDT
Nautical Twilight 5:50 AM PDT 7:54 PM PDT
Astronomical Twilight 5:18 AM PDT 8:25 PM PDT
Moon 8:52 PM PDT (9/22) 10:11 AM PDT (9/22)
Length of Visible Light 13h 01m
Length of Day
12h 08m
Waning Gibbous, 88% of the Moon is Illuminated
Sep 22
Waning Gibbous
Sep 26
Last Quarter
Oct 4
New
Oct 11
First Quarter
Oct 18
Full

Hourly Weather History & Observations

Time (PDT) Temp. Windchill Dew Point Humidity Pressure Visibility Wind Dir Wind Speed Gust Speed Precip Events Conditions
12:53 AM 37.0 °F 33.3 °F 33.1 °F 86% 29.84 in 10.0 mi South 4.6 mph - N/A   Overcast
1:53 AM 37.9 °F 34.4 °F 33.1 °F 83% 29.84 in 10.0 mi South 4.6 mph - N/A   Overcast
2:53 AM 37.9 °F - 33.1 °F 83% 29.86 in 10.0 mi Calm Calm - N/A   Overcast
3:53 AM 37.0 °F - 33.1 °F 86% 29.88 in 10.0 mi Calm Calm - N/A   Overcast
4:39 AM 35.6 °F - 32.0 °F 87% 29.95 in 10.0 mi Calm Calm - N/A   Mostly Cloudy
4:53 AM 36.0 °F - 32.0 °F 86% 29.91 in 10.0 mi Calm Calm - N/A   Mostly Cloudy
5:53 AM 33.1 °F - 30.0 °F 89% 29.92 in 10.0 mi Calm Calm - N/A   Clear
6:53 AM 33.1 °F 30.0 °F 28.9 °F 85% 29.95 in 10.0 mi SSW 3.5 mph - N/A   Clear
7:53 AM 35.1 °F 31.0 °F 30.9 °F 85% 29.95 in 10.0 mi South 4.6 mph - N/A   Clear
8:53 AM 39.9 °F 37.8 °F 33.1 °F 77% 29.95 in 10.0 mi South 3.5 mph - N/A   Clear
9:53 AM 46.9 °F - 34.0 °F 61% 29.95 in 10.0 mi Calm Calm - N/A   Clear
10:53 AM 51.1 °F - 32.0 °F 48% 29.95 in 10.0 mi Calm Calm - N/A   Clear
11:53 AM 53.1 °F - 30.9 °F 43% 29.94 in 10.0 mi Variable 4.6 mph - N/A   Clear
12:53 PM 55.9 °F - 30.0 °F 37% 29.93 in 10.0 mi Variable 4.6 mph - N/A   Clear
1:53 PM 59.0 °F - 33.1 °F 38% 29.91 in 10.0 mi NNE 5.8 mph - N/A   Clear
2:53 PM 59.0 °F - 30.9 °F 35% 29.91 in 10.0 mi Variable 3.5 mph - N/A   Clear
3:53 PM 60.1 °F - 33.1 °F 36% 29.92 in 10.0 mi South 11.5 mph - N/A   Clear
4:53 PM 57.9 °F - 36.0 °F 44% 29.94 in 10.0 mi SSW 9.2 mph - N/A   Mostly Cloudy
5:53 PM 57.0 °F - 37.0 °F 47% 29.97 in 10.0 mi Variable 3.5 mph - N/A   Mostly Cloudy
6:53 PM 52.0 °F - 37.9 °F 59% 30.00 in 10.0 mi Calm Calm - N/A   Clear
7:53 PM 48.0 °F - 37.9 °F 68% 30.03 in 10.0 mi Calm Calm - N/A   Clear
8:53 PM 45.0 °F - 37.9 °F 76% 30.04 in 10.0 mi Calm Calm - N/A   Clear
9:53 PM 43.0 °F 41.3 °F 37.0 °F 80% 30.03 in 10.0 mi SSW 3.5 mph - N/A   Clear
10:53 PM 41.0 °F 38.0 °F 36.0 °F 82% 30.04 in 10.0 mi South 4.6 mph - N/A   Clear
11:53 PM 39.0 °F 36.8 °F 34.0 °F 82% 30.05 in 10.0 mi SSW 3.5 mph - N/A   Clear